Date String (YYYY-MM-DD hh:mm:ss) UTC,Instrument flags,Ambient pressure (hPa),Sample flow (lpm),Bypass flow (lpm),Sample temperature (°C),Ambient temperature (°C),ASC tube jacket temperature (°C),LED temperature (°C),Box temperature (°C),Sample RH (%),Span deviation,Mass concentration (μg/m³),Mass concentration (μg/m³),Mass concentration (μg/m³)
DateTimeUTC,F1_M11,P_M11,Q1_M11,Q2_M11,T1_M11,T2_M11,T3_M11,T4_M11,T5_M11,U1_M11,ZSPAN_M11,X0_M11,X2_M11,X1_M11
2023-01-13 15:00:00,,0831.6,5.00,0.00,22.4,21.0,00.0,31.3,24.2,10.3,0000.0,0004.82,0002.40,0002.12
2023-01-13 15:01:00,,0831.6,5.00,0.00,22.4,21.0,00.0,31.3,24.2,10.3,0000.0,0004.89,0002.42,0002.11
2023-01-13 15:02:00,,0831.7,5.00,0.00,22.4,21.0,00.0,31.3,24.1,10.4,0000.0,0004.81,0002.43,0002.16
2023-01-13 15:03:00,,0831.7,4.99,0.00,22.4,21.0,00.0,31.3,24.1,10.3,0000.0,0003.66,0002.41,0002.16
2023-01-13 15:04:00,,0831.6,5.01,0.00,22.4,21.0,00.0,31.3,24.1,10.2,0000.0,0003.15,0002.37,0002.16
2023-01-13 15:05:00,,0831.7,5.01,0.00,22.4,21.0,00.0,31.3,24.1,10.1,0000.0,0003.28,0002.45,0002.22
2023-01-13 15:06:00,,0831.7,5.00,0.00,22.3,20.8,00.0,31.3,24.0,10.1,0000.0,0003.41,0002.52,0002.26
2023-01-13 15:07:00,,0831.7,5.00,0.00,22.3,20.7,00.0,31.3,24.0,10.3,0000.0,0003.38,0002.53,0002.27
2023-01-13 15:08:00,,0831.7,5.01,0.00,22.3,20.6,00.0,31.3,23.9,10.3,0000.0,0004.14,0002.64,0002.36
2023-01-13 15:09:00,,0831.7,4.99,0.00,22.2,20.6,00.0,31.3,23.9,10.0,0000.0,0004.51,0002.68,0002.42
2023-01-13 15:10:00,,0831.7,5.00,0.00,22.2,20.6,00.0,31.2,23.9,10.0,0000.0,0004.62,0002.77,0002.49
2023-01-13 15:11:00,,0831.6,5.00,0.00,22.2,20.7,00.0,31.2,23.9,09.9,0000.0,0004.88,0002.87,0002.53
2023-01-13 15:12:00,,0831.6,5.02,0.00,22.2,20.7,00.0,31.2,23.9,09.6,0000.0,0004.94,0002.90,0002.57
2023-01-13 15:13:00,,0831.6,5.00,0.00,22.2,20.9,00.0,31.2,23.9,09.9,0000.0,0005.11,0002.97,0002.58
2023-01-13 15:14:00,,0831.7,4.99,0.00,22.3,22.0,00.0,31.2,24.2,09.5,0000.0,0005.29,0003.11,0002.70
2023-01-13 15:15:00,,0831.7,4.99,0.00,22.4,23.0,00.0,31.2,24.5,09.2,0000.0,0005.28,0003.14,0002.75
2023-01-13 15:16:00,,0831.7,4.99,0.00,22.5,23.0,00.0,31.2,24.6,08.9,0000.0,0005.45,0003.15,0002.77
2023-01-13 15:17:00,,0831.7,5.00,0.00,22.6,22.6,00.0,31.3,24.6,08.7,0000.0,0006.73,0003.20,0002.88
2023-01-13 15:18:00,,0831.7,5.01,0.00,22.6,22.3,00.0,31.3,24.5,08.6,0000.0,0007.07,0003.27,0002.98
2023-01-13 15:19:00,,0831.6,4.99,0.00,22.6,22.1,00.0,31.3,24.5,08.9,0000.0,0006.44,0003.23,0002.94
2023-01-13 15:20:00,,0831.6,5.01,0.00,22.6,21.9,00.0,31.4,24.5,09.0,0000.0,0006.27,0003.20,0002.88
2023-01-13 15:21:00,,0831.7,5.00,0.00,22.6,21.8,00.0,31.4,24.5,08.9,0000.0,0006.24,0003.18,0002.86
2023-01-13 15:22:00,,0831.6,4.99,0.00,22.7,21.8,00.0,31.4,24.5,08.8,0000.0,0006.11,0003.17,0002.88
2023-01-13 15:23:00,,0831.6,5.00,0.00,22.7,21.7,00.0,31.4,24.5,08.7,0000.0,0006.15,0003.19,0002.90
2023-01-13 15:24:00,,0831.6,5.01,0.00,22.7,21.7,00.0,31.4,24.5,08.7,0000.0,0006.15,0003.18,0002.93
2023-01-13 15:25:00,,0831.5,5.00,0.00,22.7,21.7,00.0,31.4,24.5,09.0,0000.0,0006.04,0003.13,0002.86
2023-01-13 15:26:00,,0831.6,5.01,0.00,22.7,21.6,00.0,31.5,24.5,09.0,0000.0,0006.01,0003.12,0002.83
2023-01-13 15:27:00,,0831.5,5.00,0.00,22.7,21.6,00.0,31.5,24.5,09.1,0000.0,0005.95,0003.11,0002.84
2023-01-13 15:28:00,,0831.5,5.01,0.00,22.7,21.6,00.0,31.5,24.4,09.0,0000.0,0004.56,0003.03,0002.76
2023-01-13 15:29:00,,0831.5,5.01,0.00,22.7,21.5,00.0,31.5,24.4,09.2,0000.0,0004.45,0002.90,0002.64
2023-01-13 15:30:00,,0831.5,5.00,0.00,22.7,21.5,00.0,31.5,24.4,09.3,0000.0,0004.27,0002.85,0002.57
2023-01-13 15:31:00,,0831.5,5.01,0.00,22.7,21.5,00.0,31.5,24.4,09.4,0000.0,0004.12,0002.83,0002.54
2023-01-13 15:32:00,,0831.5,5.00,0.00,22.7,21.5,00.0,31.5,24.4,09.5,0000.0,0004.09,0002.78,0002.46
2023-01-13 15:33:00,,0831.5,4.99,0.00,22.7,21.5,00.0,31.5,24.4,09.5,0000.0,0003.92,0002.66,0002.36
2023-01-13 15:34:00,,0831.5,4.99,0.00,22.7,21.5,00.0,31.5,24.4,09.7,0000.0,0003.73,0002.52,0002.23
2023-01-13 15:35:00,,0831.6,4.99,0.00,22.7,21.5,00.0,31.5,24.3,09.8,0000.0,0003.42,0002.32,0002.06
2023-01-13 15:36:00,,0831.6,5.00,0.00,22.7,21.5,00.0,31.5,24.4,10.0,0000.0,0003.24,0002.16,0001.90
2023-01-13 15:37:00,,0831.7,5.00,0.00,22.7,21.5,00.0,31.5,24.4,09.9,0000.0,0003.08,0002.03,0001.78
2023-01-13 15:38:00,,0831.6,5.01,0.00,22.7,21.5,00.0,31.5,24.5,09.8,0000.0,0002.97,0001.89,0001.63
2023-01-13 15:39:00,,0831.6,5.01,0.00,22.7,21.5,00.0,31.5,24.5,10.1,0000.0,0002.86,0001.77,0001.50
2023-01-13 15:40:00,,0831.7,4.99,0.00,22.7,21.5,00.0,31.5,24.5,11.0,0000.0,0002.58,0001.72,0001.46
2023-01-13 15:41:00,,0831.7,5.01,0.00,22.7,21.4,00.0,31.5,24.5,10.6,0000.0,0003.30,0001.79,0001.53
2023-01-13 15:42:00,,0831.7,5.00,0.00,22.7,21.4,00.0,31.5,24.5,10.4,0000.0,0003.81,0001.86,0001.60
2023-01-13 15:43:00,,0831.6,5.00,0.00,22.7,21.3,00.0,31.5,24.4,10.7,0000.0,0003.82,0001.91,0001.67
2023-01-13 15:44:00,,0831.7,4.99,0.00,22.7,21.3,00.0,31.5,24.4,10.5,0000.0,0003.92,0001.99,0001.74
2023-01-13 15:45:00,,0831.7,5.02,0.00,22.7,21.4,00.0,31.5,24.4,10.1,0000.0,0004.11,0002.11,0001.84
2023-01-13 15:46:00,,0831.7,5.00,0.00,22.7,21.4,00.0,31.5,24.4,09.7,0000.0,0004.43,0002.26,0001.97
2023-01-13 15:47:00,,0831.7,5.00,0.00,22.7,21.5,00.0,31.5,24.4,09.9,0000.0,0004.68,0002.42,0002.12
2023-01-13 15:48:00,,0831.7,5.00,0.00,22.7,21.5,00.0,31.5,24.4,09.7,0000.0,0004.88,0002.57,0002.26
2023-01-13 15:49:00,,0831.7,5.00,0.00,22.7,21.5,00.0,31.5,24.5,09.4,0000.0,0005.05,0002.72,0002.39
2023-01-13 15:50:00,,0831.7,4.99,0.00,22.7,21.5,00.0,31.5,24.5,09.4,0000.0,0005.14,0002.81,0002.48
2023-01-13 15:51:00,,0831.6,5.01,0.00,22.7,21.5,00.0,31.5,24.5,09.6,0000.0,0005.16,0002.84,0002.52
2023-01-13 15:52:00,,0831.6,5.01,0.00,22.7,21.4,00.0,31.5,24.5,10.1,0000.0,0004.42,0002.73,0002.44
2023-01-13 15:53:00,,0831.6,5.02,0.00,22.7,21.3,00.0,31.5,24.4,11.1,0000.0,0003.87,0002.67,0002.38
2023-01-13 15:54:00,,0831.6,5.00,0.00,22.6,21.2,00.0,31.5,24.4,10.7,0000.0,0003.82,0002.63,0002.36
2023-01-13 15:55:00,,0831.6,4.99,0.00,22.6,21.2,00.0,31.5,24.4,10.9,0000.0,0003.89,0002.65,0002.34
2023-01-13 15:56:00,,0831.7,4.99,0.00,22.6,21.1,00.0,31.5,24.4,10.7,0000.0,0003.86,0002.59,0002.31
2023-01-13 15:57:00,,0831.7,5.00,0.00,22.6,21.2,00.0,31.5,24.4,11.2,0000.0,0005.02,0002.55,0002.25
2023-01-13 15:58:00,,0831.7,5.00,0.00,22.6,21.2,00.0,31.5,24.4,11.0,0000.0,0004.94,0002.52,0002.21
2023-01-13 15:59:00,,0831.7,5.00,0.00,22.6,21.3,00.0,31.5,24.3,10.8,0000.0,0004.84,0002.45,0002.16
